• En España
  • Lista de países
  • Para 7 días
  • Temperatura del agua
  • Mapa Satelital
  • El tiempo en el mapa
  • Informadores
  • user-avatar
    Iniciar sesión

    Tiempo cada hora Galaktionovskiy

    Hoy, 23 Julio, Lunes

    Tiempo Temperatura Precipitaciones Viento Presión Humedad
    00:00 +19°C° 0,1 mm 3 mps 733 mmHg 96%
    01:00 +19°C° 0,1 mm 3 mps 733 mmHg 96%
    02:00 +18°C° 0,1 mm 3 mps 733 mmHg 97%
    03:00 +18°C° 0 mm 3 mps 734 mmHg 97%
    04:00 +18°C° 0 mm 4 mps 734 mmHg 97%
    05:00 +18°C° 0 mm 4 mps 734 mmHg 97%
    06:00 +19°C° 0,2 mm 4 mps 734 mmHg 95%
    07:00 +19°C° 0,2 mm 4 mps 734 mmHg 94%
    08:00 +20°C° 0,2 mm 4 mps 734 mmHg 92%
    09:00 +21°C° 0,1 mm 4 mps 734 mmHg 91%
    10:00 +21°C° 0,1 mm 4 mps 734 mmHg 89%
    11:00 +22°C° 0,1 mm 4 mps 734 mmHg 88%
    12:00 +22°C° 0,2 mm 4 mps 734 mmHg 86%
    13:00 +23°C° 0,2 mm 4 mps 734 mmHg 85%
    14:00 +23°C° 0,2 mm 5 mps 734 mmHg 83%
    15:00 +23°C° 0,5 mm 4 mps 734 mmHg 84%
    16:00 +23°C° 0,5 mm 4 mps 734 mmHg 84%
    17:00 +23°C° 0,5 mm 4 mps 735 mmHg 85%
    18:00 +22°C° 1 mm 4 mps 734 mmHg 87%
    19:00 +21°C° 1 mm 4 mps 734 mmHg 90%
    20:00 +20°C° 1 mm 4 mps 734 mmHg 92%
    21:00 +20°C° 0,5 mm 4 mps 735 mmHg 93%
    22:00 +20°C° 0,5 mm 3 mps 735 mmHg 94%
    23:00 +20°C° 0,5 mm 3 mps 735 mmHg 95%

    Mañana, 24 Julio, Martes

    Tiempo Temperatura Precipitaciones Viento Presión Humedad
    00:00 +19°C° 0 mm 3 mps 735 mmHg 95%
    01:00 +19°C° 0 mm 3 mps 735 mmHg 96%
    02:00 +19°C° 0 mm 2 mps 735 mmHg 96%
    03:00 +19°C° 0 mm 2 mps 735 mmHg 95%
    04:00 +19°C° 0 mm 2 mps 735 mmHg 95%
    05:00 +19°C° 0 mm 2 mps 735 mmHg 95%
    06:00 +20°C° 0,2 mm 2 mps 736 mmHg 91%
    07:00 +23°C° 0,2 mm 2 mps 736 mmHg 87%
    08:00 +24°C° 0,2 mm 2 mps 736 mmHg 83%
    09:00 +25°C° 0,9 mm 3 mps 736 mmHg 77%
    10:00 +26°C° 0,9 mm 3 mps 737 mmHg 72%
    11:00 +28°C° 0,9 mm 3 mps 737 mmHg 67%
    12:00 +28°C° 0,5 mm 4 mps 737 mmHg 66%
    13:00 +28°C° 0,5 mm 4 mps 737 mmHg 66%
    14:00 +28°C° 0,5 mm 4 mps 737 mmHg 65%
    15:00 +28°C° 0,4 mm 4 mps 737 mmHg 68%
    16:00 +28°C° 0,4 mm 3 mps 737 mmHg 72%
    17:00 +28°C° 0,4 mm 3 mps 737 mmHg 75%
    18:00 +26°C° 0,2 mm 3 mps 738 mmHg 79%
    19:00 +24°C° 0,2 mm 3 mps 738 mmHg 84%
    20:00 +21°C° 0,2 mm 3 mps 738 mmHg 88%
    21:00 +21°C° 0 mm 3 mps 738 mmHg 90%
    22:00 +20°C° 0 mm 3 mps 738 mmHg 92%
    23:00 +20°C° 0 mm 3 mps 738 mmHg 93%

    Pasado mañana, 25 Julio, Miércoles

    Tiempo Temperatura Precipitaciones Viento Presión Humedad
    00:00 +19°C° 0 mm 3 mps 738 mmHg 94%
    01:00 +19°C° 0 mm 3 mps 738 mmHg 95%
    02:00 +19°C° 0 mm 3 mps 738 mmHg 96%
    03:00 +19°C° 0 mm 3 mps 738 mmHg 96%
    04:00 +19°C° 0 mm 3 mps 738 mmHg 95%
    05:00 +19°C° 0 mm 3 mps 738 mmHg 95%
    06:00 +19°C° 0,5 mm 4 mps 738 mmHg 93%
    07:00 +20°C° 0,5 mm 4 mps 738 mmHg 92%
    08:00 +20°C° 0,5 mm 5 mps 738 mmHg 90%
    09:00 +20°C° 0,6 mm 4 mps 738 mmHg 90%
    10:00 +20°C° 0,6 mm 4 mps 738 mmHg 90%
    11:00 +20°C° 0,6 mm 4 mps 738 mmHg 90%
    12:00 +20°C° 0,4 mm 4 mps 738 mmHg 90%
    13:00 +21°C° 0,4 mm 3 mps 738 mmHg 90%
    14:00 +21°C° 0,4 mm 3 mps 738 mmHg 91%
    15:00 +21°C° 0,6 mm 3 mps 738 mmHg 91%
    16:00 +21°C° 0,6 mm 2 mps 738 mmHg 91%
    17:00 +21°C° 0,6 mm 2 mps 738 mmHg 91%
    18:00 +21°C° 0,3 mm 2 mps 738 mmHg 92%
    19:00 +21°C° 0,3 mm 2 mps 738 mmHg 93%
    20:00 +20°C° 0,3 mm 2 mps 739 mmHg 95%
    21:00 +20°C° 0 mm 2 mps 739 mmHg 95%
    22:00 +20°C° 0 mm 2 mps 739 mmHg 95%
    23:00 +20°C° 0 mm 2 mps 739 mmHg 95%

    26 Julio, Jueves

    Tiempo Temperatura Precipitaciones Viento Presión Humedad
    00:00 +19°C° 0 mm 2 mps 739 mmHg 95%
    01:00 +19°C° 0 mm 2 mps 740 mmHg 95%
    02:00 +19°C° 0 mm 2 mps 740 mmHg 96%
    03:00 +19°C° 0 mm 2 mps 740 mmHg 96%
    04:00 +19°C° 0 mm 2 mps 740 mmHg 96%
    05:00 +19°C° 0 mm 2 mps 740 mmHg 95%
    06:00 +20°C° 0 mm 2 mps 740 mmHg 92%
    07:00 +21°C° 0 mm 3 mps 741 mmHg 88%
    08:00 +24°C° 0 mm 3 mps 741 mmHg 84%
    09:00 +25°C° 0 mm 4 mps 741 mmHg 80%
    10:00 +26°C° 0 mm 4 mps 741 mmHg 76%
    11:00 +27°C° 0 mm 4 mps 741 mmHg 72%
    12:00 +28°C° 0 mm 4 mps 741 mmHg 70%
    13:00 +28°C° 0 mm 4 mps 741 mmHg 68%
    14:00 +29°C° 0 mm 5 mps 741 mmHg 66%
    15:00 +29°C° 0,1 mm 4 mps 741 mmHg 69%
    16:00 +29°C° 0,1 mm 4 mps 742 mmHg 72%
    17:00 +28°C° 0,1 mm 4 mps 742 mmHg 75%
    18:00 +27°C° 0,1 mm 4 mps 742 mmHg 78%
    19:00 +26°C° 0,1 mm 4 mps 742 mmHg 81%
    20:00 +23°C° 0,1 mm 4 mps 742 mmHg 84%
    21:00 +23°C° 0,1 mm 4 mps 742 mmHg 84%
    22:00 +22°C° 0,1 mm 4 mps 742 mmHg 85%
    23:00 +21°C° 0,1 mm 4 mps 742 mmHg 85%

    27 Julio, Viernes

    Tiempo Temperatura Precipitaciones Viento Presión Humedad
    00:00 +21°C° 0,3 mm 4 mps 742 mmHg 86%
    01:00 +21°C° 0,3 mm 4 mps 742 mmHg 87%
    02:00 +20°C° 0,3 mm 4 mps 742 mmHg 88%
    03:00 +20°C° 0,1 mm 4 mps 743 mmHg 88%
    04:00 +20°C° 0,1 mm 4 mps 743 mmHg 87%
    05:00 +20°C° 0,1 mm 4 mps 743 mmHg 87%
    06:00 +21°C° 0 mm 4 mps 743 mmHg 83%
    07:00 +22°C° 0 mm 5 mps 743 mmHg 78%
    08:00 +25°C° 0 mm 5 mps 744 mmHg 74%
    09:00 +26°C° 0 mm 5 mps 744 mmHg 71%
    10:00 +27°C° 0 mm 5 mps 744 mmHg 67%
    11:00 +29°C° 0 mm 4 mps 744 mmHg 64%
    12:00 +29°C° 0,2 mm 5 mps 744 mmHg 63%
    13:00 +30°C° 0,2 mm 5 mps 744 mmHg 62%
    14:00 +30°C° 0,2 mm 5 mps 744 mmHg 60%
    15:00 +30°C° 0 mm 5 mps 744 mmHg 64%
    16:00 +29°C° 0 mm 4 mps 744 mmHg 67%
    17:00 +29°C° 0 mm 4 mps 744 mmHg 71%
    18:00 +27°C° 0 mm 4 mps 744 mmHg 74%
    19:00 +25°C° 0 mm 4 mps 744 mmHg 78%
    20:00 +23°C° 0 mm 4 mps 744 mmHg 81%
    21:00 +22°C° 0 mm 4 mps 744 mmHg 83%
    22:00 +21°C° 0 mm 4 mps 744 mmHg 85%
    23:00 +21°C° 0 mm 4 mps 744 mmHg 87%

    28 Julio, Sábado

    Tiempo Temperatura Precipitaciones Viento Presión Humedad
    00:00 +20°C° 0 mm 4 mps 744 mmHg 89%
    01:00 +20°C° 0 mm 3 mps 744 mmHg 90%
    02:00 +20°C° 0 mm 3 mps 744 mmHg 91%
    03:00 +20°C° 0 mm 4 mps 744 mmHg 91%
    04:00 +20°C° 0 mm 4 mps 744 mmHg 90%
    05:00 +20°C° 0 mm 4 mps 744 mmHg 89%
    06:00 +21°C° 0 mm 4 mps 744 mmHg 84%
    07:00 +22°C° 0 mm 5 mps 744 mmHg 80%
    08:00 +25°C° 0 mm 5 mps 745 mmHg 75%
    09:00 +26°C° 0 mm 5 mps 745 mmHg 71%
    10:00 +27°C° 0 mm 5 mps 745 mmHg 67%
    11:00 +29°C° 0 mm 5 mps 745 mmHg 63%
    12:00 +29°C° 0 mm 5 mps 745 mmHg 61%
    13:00 +30°C° 0 mm 5 mps 745 mmHg 59%
    14:00 +30°C° 0 mm 5 mps 745 mmHg 56%
    15:00 +30°C° 0 mm 5 mps 745 mmHg 61%
    16:00 +29°C° 0 mm 4 mps 745 mmHg 65%
    17:00 +29°C° 0 mm 4 mps 745 mmHg 69%
    18:00 +27°C° 0 mm 4 mps 745 mmHg 73%
    19:00 +26°C° 0 mm 3 mps 745 mmHg 76%
    20:00 +24°C° 0 mm 3 mps 745 mmHg 80%
    21:00 +22°C° 0 mm 3 mps 745 mmHg 81%
    22:00 +22°C° 0 mm 3 mps 745 mmHg 82%
    23:00 +21°C° 0 mm 3 mps 745 mmHg 83%
    Mostrar más